Regional Weather Roundup
Issued by NWS

Home | Current Version | Previous Version | Graphics & Text | Print | Product List | Glossary On
Versions: 1 2 3 4 5 6 7 8 9 10 11 12 13 14 15 16 17 18 19 20 21 22 23 24 25 26 27 28 29 30 31 32 33 34 35 36 37 38 39 40 41 42 43 44 45 46 47 48 49 50
000
ASUS44 KMEG 161210
RWRTN
TENNESSEE HOURLY STATE WEATHER ROUNDUP
NATIONAL WEATHER SERVICE MEMPHIS TN
700 AM CDT TUE SEP 16 2014

TNZ002-004-019-021-049-052-054-088>092-161300-
WEST TENNESSEE

CITY           SKY/WX    TMP DP  RH WIND       PRES   REMARKS
MEMPHIS INTL   PTCLDY    68  64  87 CALM      30.11S
NWS MEMPHIS      N/A     65 N/A N/A MISG        N/A
JACKSON        PTCLDY    62  60  93 CALM      30.12R
DYERSBURG      CLOUDY    66  55  68 N6        30.14R
UNION CITY     CLOUDY    63  63 100 N9        30.13S
PARIS          CLOUDY    64  63  94 N7        30.13S
HUNTINGDON     CLOUDY    64  62  93 VRB3      30.12S
LEXINGTON        N/A     61  61 100 CALM      30.11S
SAVANNAH       CLEAR     61  61 100 CALM      30.12S
$$

TNZ008-025-027-028-033-062-065-066-161300-
NORTH MIDDLE TENNESSEE

CITY           SKY/WX    TMP DP  RH WIND       PRES   REMARKS
NASHVILLE      MOCLDY    69  64  84 NW3       30.12R
DICKSON        MOCLDY    64  63  94 N3        30.12R
PORTLAND       CLOUDY    64  63  94 NW5       30.11R
CLARKSVILLE    LGT RAIN  66  62  87 N10       30.13R
LEBANON        CLOUDY    66  64  93 CALM      30.10R
SMYRNA         MOCLDY    65  63  93 CALM      30.13R
MURFREESBORO   MOCLDY    65  63  93 CALM      30.12R
COOKEVILLE     CLOUDY    66  64  94 CALM      30.13R
GALLATIN       CLOUDY    67  67 100 CALM      30.12R
CROSSVILLE     CLOUDY    66  61  84 W3        30.16R
$$

TNZ061-075-076-078-094-096-097-161300-
SOUTH MIDDLE TENNESSEE

CITY           SKY/WX    TMP DP  RH WIND       PRES   REMARKS
LEWISBURG        N/A     61  60  96 CALM      30.12S VSB 1/2
FAYETTEVILLE   CLEAR     63  63 100 CALM      30.13S
TULLAHOMA      CLEAR     61  61 100 CALM      30.14F
WINCHESTER     CLOUDY    64  64 100 CALM      30.14S VSB 0
MCMINNVILLE    CLOUDY    64  64 100 CALM      30.14R
COLUMBIA       PTCLDY    63  63 100 CALM      30.11S
SHELBYVILLE    MOCLDY    63  63 100 CALM      30.14R
$$

TNZ017-018-042-046-047-161300-
NORTHEAST TENNESSEE

CITY           SKY/WX    TMP DP  RH WIND       PRES   REMARKS
TRI CITIES     CLOUDY    66  63  90 CALM      30.12S FOG
ELIZABETHTON   CLOUDY    63  61  94 CALM      30.13S
$$

TNZ012-013-036-069-073-074-161300-
CENTRAL EAST TENNESSEE

CITY           SKY/WX    TMP DP  RH WIND       PRES   REMARKS
KNOXVILLE      CLOUDY    70  69  97 SW8       30.10S FOG
OAK RIDGE      CLOUDY    70  67  90 CALM      30.12S
GATLINBURG     MOSUNNY   64  63  94 CALM      30.11R
MORRISTOWN     MOSUNNY   70  70 100 W6        30.13R
$$

TNZ083-085-099-161300-
SOUTHEAST TENNESSEE

CITY           SKY/WX    TMP DP  RH WIND       PRES   REMARKS
CHATTANOOGA    FOG       71  69  93 CALM      30.12R VSB 1/8
$$

SKY/WX REPORTED AS FAIR MEANS FEW OR NO CLOUDS BELOW
12 THOUSAND FEET.



USA.gov is the U.S. government's official web portal to all federal, state and local government web resources and services.